EW3582 Weather Reports


Display with metric or nautical units.
time (UTC)temp
F
wind
direction
speed
MPH
gust
MPH
rain 1hr
in
rain 24hr
in
rain mn
in
humidity
%
barometer
mb
20260505041315 47 348 0.0 0.0 0.00 0.02 0.00 78 1008.5
20260505040815 47 353 0.0 0.0 0.00 0.02 0.00 78 1008.6
20260505035812 48 353 0.0 0.0 0.00 0.02 0.00 78 1008.5
20260505035311 48 353 0.0 0.0 0.00 0.02 0.00 79 1008.4
20260505034312 48 348 0.0 0.0 0.00 0.02 0.00 78 1008.5
20260505033814 48 348 0.0 0.0 0.00 0.02 0.00 78 1008.5
20260505033312 48 348 0.0 0.0 0.00 0.02 0.00 79 1008.5
20260505032812 48 348 0.0 0.0 0.00 0.02 0.00 78 1008.4
20260505031341 48 353 0.0 0.0 0.00 0.02 0.00 79 1008.6
20260505030813 48 348 0.0 0.0 0.00 0.02 0.00 79 1008.6
20260505030337 48 348 0.0 0.0 0.00 0.02 0.00 79 1008.7
20260505024812 48 353 0.0 0.0 0.00 0.02 0.00 81 1008.8
20260505024313 49 353 0.0 0.0 0.00 0.02 0.00 80 1008.9
20260505023813 49 348 0.0 0.0 0.00 0.02 0.00 80 1008.9
20260505023311 49 348 0.0 0.0 0.00 0.02 0.00 80 1008.9
20260505022309 49 348 0.0 0.0 0.00 0.02 0.00 80 1009.0
20260505021810 49 348 0.0 0.0 0.00 0.02 0.00 80 1009.1
20260505021309 49 348 0.0 0.0 0.00 0.02 0.00 81 1009.2
20260505020310 49 348 0.0 2.0 0.00 0.02 0.00 81 1009.2
20260505015810 50 353 0.0 2.0 0.00 0.02 0.00 80 1009.4
20260505015328 50 348 0.0 2.0 0.00 0.02 0.00 80 1009.4
20260505014809 49 348 0.0 2.0 0.00 0.02 0.00 81 1009.4
20260505014308 50 348 0.0 2.0 0.00 0.02 0.00 80 1009.6
20260505013808 50 353 0.0 0.0 0.00 0.02 0.00 80 1009.6
20260505013309 50 341 0.0 0.0 0.00 0.02 0.00 79 1009.8
20260505012808 50 341 0.0 0.0 0.00 0.02 0.00 79 1009.7
20260505012308 50 340 0.0 0.0 0.00 0.02 0.00 78 1009.7
20260505011808 50 341 0.0 0.0 0.00 0.02 0.00 78 1009.8
20260505011321 50 341 0.0 0.0 0.00 0.02 0.00 77 1009.8
20260505010808 50 340 0.0 0.0 0.00 0.02 0.00 77 1009.8
20260505010322 50 353 0.0 0.0 0.00 0.02 0.00 77 1009.8
20260505005854 50 353 0.0 0.0 0.00 0.02 0.00 78 1009.7
20260505005309 50 353 0.0 0.0 0.00 0.02 0.00 78 1009.7
20260505004810 50 340 0.0 0.0 0.00 0.02 0.00 78 1009.7
20260505004308 50 341 0.0 0.0 0.00 0.02 0.00 78 1009.8
20260505003808 50 340 0.0 0.0 0.00 0.02 0.00 78 1009.8
20260505003308 50 341 0.0 0.0 0.00 0.02 0.00 78 1009.8
20260505002808 50 340 0.0 0.0 0.00 0.02 0.00 78 1009.8
20260505001309 50 341 0.0 0.0 0.00 0.02 0.00 79 1009.9
20260505000308 50 341 0.0 0.0 0.00 0.02 0.00 79 1009.9
20260504235808 50 353 0.0 0.0 0.00 0.02 0.00 80 1010.0
20260504235308 50 340 0.0 0.0 0.00 0.02 0.00 80 1010.1
20260504234807 50 341 0.0 0.0 0.00 0.02 0.00 80 1010.1
20260504234309 51 341 0.0 0.0 0.00 0.02 0.00 80 1010.1
20260504233808 51 341 0.0 0.0 0.00 0.02 0.00 80 1010.2
20260504233309 51 341 0.0 0.0 0.00 0.02 0.00 80 1010.1
20260504232811 51 353 0.0 0.0 0.00 0.02 0.00 80 1010.2
20260504232308 51 353 0.0 0.0 0.00 0.02 0.00 79 1010.3
20260504231810 51 341 0.0 0.0 0.00 0.02 0.00 79 1010.3
20260504231308 51 340 0.0 0.0 0.00 0.02 0.00 80 1010.4
20260504230809 52 341 0.0 0.0 0.00 0.02 0.00 80 1010.5
20260504230308 52 340 0.0 0.0 0.00 0.02 0.00 79 1010.5
20260504225809 52 353 0.0 0.0 0.00 0.02 0.00 79 1010.6
20260504224809 52 341 0.0 0.0 0.00 0.02 0.00 79 1010.6
20260504224308 52 341 0.0 0.0 0.00 0.02 0.00 79 1010.6
20260504223808 52 353 0.0 0.0 0.00 0.02 0.00 79 1010.6
20260504223308 52 340 0.0 0.0 0.01 0.02 0.00 79 1010.7
20260504222808 52 341 0.0 0.0 0.01 0.02 0.00 79 1010.8
20260504221810 53 340 0.0 0.0 0.01 0.02 0.00 78 1010.7
20260504221310 53 353 0.0 0.0 0.01 0.02 0.00 78 1010.7
20260504215809 53 340 0.0 0.0 0.01 0.02 0.02 79 1010.7
20260504215310 53 341 0.0 0.0 0.01 0.02 0.02 79 1010.8
20260504214802 53 341 0.0 0.0 0.01 0.02 0.02 80 1010.9
20260504213752 53 341 0.0 0.0 0.01 0.02 0.02 81 1010.9
20260504213250 53 353 0.0 0.0 0.00 0.01 0.01 80 1010.9
20260504212750 53 353 0.0 0.0 0.00 0.01 0.01 81 1010.9
20260504212250 53 353 0.0 0.0 0.00 0.01 0.01 81 1010.9
20260504211252 53 341 0.0 0.0 0.00 0.01 0.01 81 1010.9
20260504210751 54 341 0.0 0.0 0.00 0.01 0.01 81 1011.1
20260504210248 54 340 0.0 2.0 0.00 0.01 0.01 81 1011.1
20260504205747 54 341 0.0 2.0 0.00 0.01 0.01 81 1010.9
20260504205246 54 341 0.0 0.0 0.00 0.01 0.01 82 1011.1
20260504204242 54 340 0.0 0.0 0.00 0.01 0.01 82 1011.4
20260504203743 55 341 0.0 0.0 0.00 0.01 0.01 82 1011.4
20260504203242 55 341 0.0 0.0 0.00 0.01 0.01 82 1011.4
20260504202742 55 341 0.0 0.0 0.00 0.01 0.01 82 1011.5
20260504202239 55 341 0.0 0.0 0.00 0.01 0.01 82 1011.5
20260504201739 55 353 0.0 0.0 0.00 0.01 0.01 82 1011.5
20260504200736 56 341 0.0 3.0 0.01 0.01 0.01 82 1011.6
20260504200236 56 353 0.0 2.0 0.01 0.01 0.01 82 1011.5
20260504195237 56 343 1.0 3.0 0.01 0.01 0.01 83 1011.6
20260504194739 57 353 1.0 3.0 0.01 0.01 0.01 83 1011.5
20260504194238 57 353 1.0 3.0 0.01 0.01 0.01 83 1011.5
20260504193737 58 358 0.0 2.0 0.01 0.01 0.01 84 1011.5
20260504193237 58 358 0.0 2.0 0.01 0.01 0.01 83 1011.5
20260504192737 58 353 0.0 1.0 0.01 0.01 0.01 83 1011.6
20260504192237 59 353 0.0 1.0 0.01 0.01 0.01 81 1011.7
20260504191236 60 358 1.0 3.0 0.00 0.00 0.00 74 1011.7
20260504190236 60 71 0.0 2.0 0.00 0.00 0.00 71 1011.5
20260504185735 60 92 0.0 0.0 0.00 0.00 0.00 70 1011.3
20260504185239 60 92 0.0 0.0 0.00 0.00 0.00 70 1011.3
20260504184737 60 92 0.0 0.0 0.00 0.00 0.00 69 1011.3
20260504184237 60 93 0.0 0.0 0.00 0.00 0.00 66 1011.3
20260504183736 61 107 0.0 0.0 0.00 0.00 0.00 66 1011.2
20260504183237 61 106 0.0 0.0 0.00 0.00 0.00 65 1011.2
20260504182734 62 108 0.0 0.0 0.00 0.00 0.00 64 1011.2
20260504182235 62 107 0.0 0.0 0.00 0.00 0.00 64 1011.2
20260504181801 62 107 0.0 0.0 0.00 0.00 0.00 64 1011.1
20260504181234 63 107 0.0 0.0 0.00 0.00 0.00 64 1011.1
20260504180734 63 107 0.0 0.0 0.00 0.00 0.00 63 1010.9
20260504180234 64 108 0.0 0.0 0.00 0.00 0.00 63 1010.9
20260504175736 64 107 0.0 0.0 0.00 0.00 0.00 62 1010.8
20260504175234 65 108 0.0 0.0 0.00 0.00 0.00 65 1010.7
20260504174755 65 108 0.0 0.0 0.00 0.00 0.00 63 1010.7
20260504173233 67 108 0.0 2.0 0.00 0.00 0.00 57 1010.7
20260504172735 68 116 0.0 0.0 0.00 0.00 0.00 55 1010.8
20260504172236 69 115 0.0 0.0 0.00 0.00 0.00 54 1010.8
20260504171737 69 115 0.0 0.0 0.00 0.00 0.00 53 1010.8
20260504171235 69 115 0.0 1.0 0.00 0.00 0.00 50 1010.8
20260504170735 70 116 0.0 2.0 0.00 0.00 0.00 50 1010.8
20260504170235 70 114 1.0 3.0 0.00 0.00 0.00 49 1010.8
20260504160235 72 141 1.0 4.0 0.00 0.00 0.00 42 1011.3
20260504150736 72 146 2.0 7.0 0.00 0.00 0.00 43 1011.6
20260504150234 73 106 3.0 7.0 0.00 0.00 0.00 43 1011.6
20260504141234 73 328 2.0 8.0 0.00 0.00 0.00 41 1011.9
20260504140734 74 90 2.0 6.0 0.00 0.00 0.00 40 1012.0
20260504140238 74 105 3.0 9.0 0.00 0.00 0.00 43 1012.0
20260504130710 74 66 2.0 10.0 0.00 0.00 0.00 44 1012.4
20260504130210 73 80 3.0 10.0 0.00 0.00 0.00 47 1012.4
20260504120221 72 78 3.0 12.0 0.00 0.00 0.00 46 1012.7
20260504110710 71 98 4.0 11.0 0.00 0.00 0.00 49 1013.4
20260504110211 71 97 3.0 11.0 0.00 0.00 0.00 45 1013.4
20260504100209 69 84 3.0 10.0 0.00 0.00 0.00 52 1014.1
20260504081708 65 25 3.0 9.0 0.00 0.00 0.00 57 1014.5
20260504081209 65 70 3.0 9.0 0.00 0.00 0.00 57 1014.4
20260504080708 64 69 2.0 9.0 0.00 0.00 0.00 59 1014.4
20260504060134 62 62 2.0 8.0 0.00 0.00 0.00 60 1014.0
20260504050618 56 62 0.0 3.0 0.00 0.00 0.00 70 1013.9
20260504045642 55 62 2.0 7.0 0.00 0.00 0.00 70 1014.0
20260504045109 55 68 1.0 4.0 0.00 0.00 0.00 71 1014.0
20260504044609 54 64 0.0 3.0 0.00 0.00 0.00 71 1014.0